N5CSU Weather Reports


Display with metric or nautical units.
time (UTC)temp
F
wind
direction
speed
MPH
gust
MPH
rain 1hr
in
rain 24hr
in
rain mn
in
humidity
%
barometer
mb
20260507093341 53 184 0.0 0.0 0.00 0.00 0.00 90 1018.2
20260507092839 53 184 0.0 0.0 0.00 0.00 0.00 90 1018.4
20260507092335 54 183 0.0 0.0 0.00 0.00 0.00 90 1018.2
20260507091831 54 183 0.0 0.0 0.00 0.00 0.00 90 1018.3
20260507091328 54 182 0.0 0.0 0.00 0.00 0.00 90 1018.0
20260507090823 54 182 0.0 0.0 0.00 0.00 0.00 90 1018.3
20260507090320 54 182 0.0 0.0 0.00 0.00 0.00 90 1018.0
20260507085817 54 182 0.0 0.0 0.00 0.00 0.00 90 1018.0
20260507085314 55 182 0.0 0.0 0.00 0.00 0.00 89 1018.1
20260507084811 55 182 0.0 0.0 0.00 0.00 0.00 89 1018.3
20260507084307 55 180 0.0 0.0 0.00 0.00 0.00 89 1018.1
20260507083805 55 180 0.0 0.0 0.00 0.00 0.00 89 1018.2
20260507083301 55 179 0.0 0.0 0.00 0.00 0.00 89 1018.0
20260507082757 55 181 0.0 0.0 0.00 0.00 0.00 89 1018.2
20260507082253 55 180 0.0 0.0 0.00 0.00 0.00 89 1018.1
20260507081750 55 180 0.0 0.0 0.00 0.00 0.00 89 1018.2
20260507081246 55 184 0.0 0.0 0.00 0.00 0.00 88 1018.0
20260507080743 56 184 0.0 0.0 0.00 0.00 0.00 88 1017.9
20260507080239 56 184 0.0 0.0 0.00 0.00 0.00 88 1017.9
20260507075735 56 175 0.0 0.0 0.00 0.00 0.00 87 1017.9
20260507075231 56 183 0.0 0.0 0.00 0.00 0.00 87 1017.7
20260507074727 56 178 0.0 0.0 0.00 0.00 0.00 87 1017.7
20260507074226 56 179 0.0 0.0 0.00 0.00 0.00 87 1017.4
20260507073722 56 182 0.0 0.0 0.00 0.00 0.00 87 1017.4
20260507073219 56 183 0.0 0.0 0.00 0.00 0.00 87 1017.2
20260507072717 56 180 0.0 0.0 0.00 0.00 0.00 87 1017.3
20260507072214 56 187 0.0 0.0 0.00 0.00 0.00 87 1017.2
20260507071711 56 194 0.0 0.0 0.00 0.00 0.00 87 1017.5
20260507071208 56 175 0.0 0.0 0.00 0.00 0.00 87 1017.5
20260507070705 56 174 0.0 0.0 0.00 0.00 0.00 87 1017.5
20260507070201 56 172 0.0 0.0 0.00 0.00 0.00 86 1017.5
20260507065657 56 176 0.0 0.0 0.00 0.00 0.00 86 1017.4
20260507065155 56 174 0.0 0.0 0.00 0.00 0.00 86 1017.6
20260507064652 56 182 0.0 0.0 0.00 0.00 0.00 85 1017.7
20260507064150 57 181 0.0 0.0 0.00 0.00 0.00 85 1017.5
20260507063648 57 183 0.0 0.0 0.00 0.00 0.00 84 1017.6
20260507063145 57 171 0.0 0.0 0.00 0.00 0.00 83 1017.5
20260507062641 57 160 0.0 0.0 0.00 0.00 0.00 83 1017.4
20260507062139 57 172 0.0 0.0 0.00 0.00 0.00 82 1017.6
20260507061637 57 170 0.0 0.0 0.00 0.00 0.00 82 1017.2
20260507061134 58 189 0.0 0.0 0.00 0.00 0.00 82 1017.4
20260507060632 58 176 0.0 0.0 0.00 0.00 0.00 81 1017.4
20260507060128 58 171 0.0 0.0 0.00 0.00 0.00 82 1017.4
20260507055624 58 173 0.0 0.0 0.00 0.00 0.00 81 1017.2
20260507055120 58 183 0.0 0.0 0.00 0.00 0.00 81 1017.4
20260507054616 58 151 0.0 0.0 0.00 0.00 0.00 81 1017.4
20260507054113 58 40 0.0 1.0 0.00 0.00 0.00 81 1017.4
20260507053611 59 156 1.0 1.0 0.00 0.00 0.00 81 1017.2
20260507053110 59 172 1.0 1.0 0.00 0.00 0.00 82 1017.3
20260507052607 59 158 0.0 0.0 0.00 0.00 0.00 82 1017.2
20260507052103 59 193 0.0 0.0 0.00 0.00 0.00 82 1017.4
20260507051601 59 162 0.0 0.0 0.00 0.00 0.00 81 1017.4
20260507051058 59 197 1.0 1.0 0.00 0.00 0.00 81 1017.4
20260507050554 59 168 0.0 0.0 0.00 0.00 0.00 82 1017.4
20260507050051 59 169 1.0 1.0 0.00 0.00 0.00 82 1017.4
20260507045548 59 188 0.0 0.0 0.00 0.00 0.00 81 1017.4
20260507045045 59 197 0.0 0.0 0.00 0.00 0.00 80 1017.7
20260507044541 59 177 0.0 0.0 0.00 0.00 0.00 80 1017.6
20260507044039 59 162 0.0 0.0 0.00 0.00 0.00 79 1017.6
20260507043534 60 131 0.0 1.0 0.00 0.00 0.00 80 1017.6
20260507043032 60 186 1.0 1.0 0.00 0.00 0.00 79 1017.6
20260507042527 60 19 0.0 2.0 0.00 0.00 0.00 79 1017.7
20260507042023 60 47 2.0 3.0 0.00 0.00 0.00 78 1018.0
20260507041521 60 192 0.0 0.0 0.00 0.00 0.00 78 1017.8
20260507041017 60 181 0.0 0.0 0.00 0.00 0.00 79 1017.8
20260507040514 60 183 0.0 0.0 0.00 0.00 0.00 80 1018.0
20260507040009 60 196 0.0 0.0 0.00 0.00 0.00 79 1017.8
20260507035506 60 188 0.0 0.0 0.00 0.00 0.00 80 1017.8
20260507035002 60 182 0.0 0.0 0.00 0.00 0.00 80 1017.7
20260507034459 60 192 0.0 0.0 0.00 0.00 0.00 80 1017.9
20260507033957 60 177 0.0 0.0 0.00 0.00 0.00 80 1017.9
20260507033456 60 193 0.0 0.0 0.00 0.00 0.00 80 1017.9
20260507032952 60 199 0.0 0.0 0.00 0.00 0.00 79 1017.9
20260507032449 60 196 0.0 0.0 0.00 0.00 0.00 79 1017.6
20260507031945 60 202 0.0 0.0 0.00 0.00 0.00 79 1017.6
20260507031441 60 199 0.0 1.0 0.00 0.00 0.00 80 1017.4
20260507030938 60 224 1.0 1.0 0.00 0.00 0.00 81 1017.5
20260507030436 60 184 0.0 0.0 0.00 0.00 0.00 81 1017.3
20260507025933 60 187 0.0 0.0 0.00 0.00 0.00 81 1017.3
20260507025430 60 187 0.0 0.0 0.00 0.00 0.00 81 1017.1
20260507024928 60 204 0.0 1.0 0.00 0.00 0.00 81 1017.0
20260507024425 60 187 0.0 0.0 0.00 0.00 0.00 80 1017.1
20260507023920 60 195 0.0 0.0 0.00 0.00 0.00 81 1016.9
20260507023418 60 178 0.0 0.0 0.00 0.00 0.00 81 1016.8
20260507022915 60 178 0.0 0.0 0.00 0.00 0.00 81 1016.7
20260507022412 60 186 0.0 0.0 0.00 0.00 0.00 82 1016.8
20260507021907 60 161 0.0 0.0 0.00 0.00 0.00 82 1016.8
20260507021404 60 184 0.0 0.0 0.00 0.00 0.00 82 1016.6
20260507020901 60 125 0.0 0.0 0.00 0.00 0.00 83 1016.5
20260507020357 60 190 0.0 0.0 0.00 0.00 0.00 83 1016.3
20260507015854 60 176 0.0 0.0 0.00 0.00 0.00 84 1016.0
20260507015352 60 173 0.0 0.0 0.00 0.00 0.00 84 1016.1
20260507014849 60 170 0.0 0.0 0.00 0.00 0.00 84 1016.0
20260507014345 60 183 0.0 0.0 0.00 0.00 0.00 84 1015.6
20260507013842 60 171 0.0 0.0 0.00 0.00 0.00 84 1015.5
20260507013339 60 168 0.0 0.0 0.00 0.00 0.00 84 1015.6
20260507012836 60 159 0.0 0.0 0.00 0.00 0.00 84 1015.4
20260507012332 60 191 0.0 0.0 0.00 0.00 0.00 84 1015.4
20260507011829 60 188 0.0 0.0 0.00 0.00 0.00 84 1015.3
20260507011326 60 193 0.0 0.0 0.00 0.00 0.00 84 1015.2
20260507010825 60 185 0.0 0.0 0.00 0.00 0.00 84 1015.3
20260507010321 60 140 0.0 1.0 0.00 0.00 0.00 84 1015.1
20260507005820 60 192 0.0 0.0 0.00 0.00 0.00 84 1014.9
20260507005316 60 174 0.0 0.0 0.00 0.00 0.00 84 1015.1
20260507004812 60 102 0.0 1.0 0.00 0.00 0.00 84 1015.0
20260507004310 60 164 0.0 0.0 0.00 0.00 0.00 84 1014.9
20260507003807 60 33 0.0 0.0 0.00 0.00 0.00 83 1014.9
20260507003301 60 33 0.0 0.0 0.00 0.00 0.00 83 1014.9
20260507002758 60 175 0.0 0.0 0.00 0.00 0.00 83 1015.0
20260507002253 60 185 0.0 0.0 0.00 0.00 0.00 83 1014.8
20260507001751 60 149 0.0 0.0 0.00 0.00 0.00 83 1014.7
20260507001249 60 163 0.0 0.0 0.00 0.00 0.00 82 1014.8
20260507000745 60 156 0.0 0.0 0.00 0.00 0.00 82 1014.6
20260507000241 60 199 0.0 0.0 0.00 0.00 0.00 82 1014.6
20260506235738 60 8 0.0 0.0 0.00 0.00 0.00 81 1014.6
20260506235232 61 8 0.0 0.0 0.00 0.00 0.00 81 1014.3
20260506234729 61 151 0.0 1.0 0.00 0.00 0.00 81 1014.4
20260506234227 61 61 0.0 1.0 0.00 0.00 0.00 81 1014.5
20260506233719 61 115 0.0 0.0 0.00 0.00 0.00 80 1014.5
20260506233215 61 172 0.0 1.0 0.00 0.00 0.00 81 1014.4
20260506232711 61 173 0.0 0.0 0.00 0.00 0.00 81 1014.4
20260506232206 61 167 0.0 0.0 0.00 0.00 0.00 80 1014.5
20260506231703 61 168 0.0 0.0 0.00 0.00 0.00 80 1014.1
20260506231202 61 173 0.0 0.0 0.00 0.00 0.00 79 1014.1
20260506230658 61 195 0.0 0.0 0.00 0.00 0.00 80 1014.3
20260506230155 61 187 0.0 0.0 0.00 0.00 0.00 80 1014.1
20260506225651 61 195 0.0 0.0 0.00 0.00 0.00 80 1014.0
20260506225149 61 173 0.0 0.0 0.00 0.00 0.00 80 1014.0
20260506224645 61 186 0.0 0.0 0.00 0.00 0.00 80 1014.1
20260506224142 62 147 0.0 0.0 0.00 0.00 0.00 80 1013.9
20260506223638 61 174 0.0 0.0 0.00 0.00 0.00 80 1013.9
20260506223134 61 174 0.0 0.0 0.00 0.00 0.00 79 1014.0
20260506222631 61 167 0.0 0.0 0.00 0.00 0.00 80 1013.9
20260506222127 61 179 0.0 0.0 0.00 0.00 0.00 81 1014.0
20260506221625 61 195 0.0 0.0 0.00 0.00 0.00 81 1013.9
20260506221123 61 201 0.0 0.0 0.00 0.00 0.00 81 1014.0
20260506220619 61 183 0.0 0.0 0.00 0.00 0.00 80 1013.7
20260506220114 61 170 0.0 0.0 0.00 0.00 0.00 80 1013.5
20260506215612 61 185 0.0 0.0 0.00 0.00 0.00 81 1013.6
20260506215107 61 188 0.0 0.0 0.00 0.00 0.00 81 1013.2
20260506214604 61 180 0.0 0.0 0.00 0.00 0.00 81 1013.5
20260506214101 61 179 0.0 0.0 0.00 0.00 0.00 81 1013.6
20260506213559 61 185 0.0 0.0 0.00 0.00 0.00 80 1013.6
20260506213051 61 175 0.0 0.0 0.00 0.00 0.00 80 1013.8
20260506212548 61 165 0.0 0.0 0.00 0.00 0.00 79 1013.7
20260506212043 61 171 0.0 0.0 0.00 0.00 0.00 80 1013.6
20260506211539 61 192 0.0 0.0 0.00 0.00 0.00 80 1013.7
20260506211036 61 192 0.0 0.0 0.00 0.00 0.00 80 1013.9
20260506210533 61 179 0.0 0.0 0.00 0.00 0.00 79 1013.7
20260506210030 61 176 0.0 0.0 0.00 0.00 0.00 80 1013.9
20260506205526 61 175 0.0 0.0 0.00 0.00 0.00 79 1013.8
20260506205021 61 176 0.0 0.0 0.00 0.00 0.00 81 1013.9
20260506204520 61 178 0.0 0.0 0.00 0.00 0.00 80 1014.3
20260506204016 61 192 0.0 0.0 0.00 0.00 0.00 80 1014.3
20260506203515 61 172 0.0 0.0 0.00 0.00 0.00 79 1014.2
20260506203010 61 182 0.0 0.0 0.00 0.00 0.00 80 1014.2
20260506202508 61 181 0.0 0.0 0.00 0.00 0.00 78 1014.1
20260506202003 61 208 0.0 0.0 0.00 0.00 0.00 80 1014.3
20260506201502 60 184 0.0 0.0 0.00 0.00 0.00 82 1014.2
20260506200952 60 193 0.0 0.0 0.00 0.00 0.00 83 1014.8
20260506200448 60 192 0.0 0.0 0.00 0.00 0.00 81 1014.4
20260506195945 60 179 0.0 0.0 0.00 0.00 0.00 82 1014.8
20260506195442 60 187 0.0 0.0 0.00 0.00 0.00 80 1014.9
20260506194938 60 187 0.0 0.0 0.00 0.00 0.00 82 1014.7
20260506194436 60 199 0.0 0.0 0.00 0.00 0.00 81 1014.3
20260506193932 60 180 0.0 0.0 0.00 0.00 0.00 81 1014.6
20260506193430 59 169 0.0 0.0 0.00 0.00 0.00 83 1014.5
20260506192926 59 196 0.0 0.0 0.00 0.00 0.00 85 1014.5
20260506192423 58 179 0.0 0.0 0.00 0.00 0.00 85 1014.7
20260506191920 58 179 0.0 1.0 0.00 0.00 0.00 85 1015.0
20260506191416 57 195 0.0 0.0 0.00 0.00 0.00 86 1015.4
20260506190914 57 181 0.0 0.0 0.00 0.00 0.00 87 1015.4
20260506190410 57 187 0.0 0.0 0.00 0.00 0.00 86 1015.2
20260506185907 57 178 0.0 0.0 0.00 0.00 0.00 86 1015.0
20260506185404 57 169 0.0 0.0 0.00 0.00 0.00 86 1014.7
20260506184901 57 174 0.0 0.0 0.00 0.00 0.00 86 1014.8
20260506184358 57 171 0.0 0.0 0.00 0.00 0.00 86 1014.9
20260506183855 57 183 0.0 0.0 0.00 0.00 0.00 87 1015.0
20260506183350 57 160 0.0 0.0 0.00 0.00 0.00 85 1014.5
20260506182848 57 186 0.0 0.0 0.00 0.00 0.00 87 1014.8
20260506182345 57 192 0.0 0.0 0.00 0.00 0.00 86 1014.7
20260506181842 57 189 0.0 0.0 0.00 0.00 0.00 87 1014.2
20260506181340 57 185 0.0 0.0 0.00 0.00 0.00 86 1013.6
20260506180837 57 176 0.0 0.0 0.00 0.00 0.00 87 1013.5
20260506180333 57 199 0.0 1.0 0.00 0.00 0.00 88 1013.3
20260506175829 57 191 0.0 0.0 0.00 0.00 0.00 89 1013.4
20260506175326 57 205 0.0 0.0 0.00 0.00 0.00 88 1013.3
20260506174823 56 173 0.0 0.0 0.00 0.00 0.00 88 1013.7
20260506174321 56 187 0.0 0.0 0.00 0.00 0.00 89 1014.0
20260506173818 56 192 0.0 0.0 0.00 0.00 0.00 89 1014.3
20260506173315 56 118 0.0 2.0 0.00 0.00 0.00 90 1014.0
20260506172812 56 177 0.0 0.0 0.00 0.00 0.00 91 1014.4
20260506172308 56 216 0.0 0.0 0.00 0.00 0.00 90 1014.7
20260506171806 55 173 0.0 0.0 0.00 0.00 0.00 90 1015.0
20260506171303 55 188 0.0 0.0 0.00 0.00 0.00 92 1015.0
20260506170801 55 187 0.0 0.0 0.00 0.00 0.00 91 1014.7
20260506170257 55 183 0.0 0.0 0.00 0.00 0.00 92 1015.1
20260506165755 55 177 0.0 0.0 0.00 0.00 0.00 91 1014.8
20260506165252 55 189 0.0 0.0 0.00 0.00 0.00 90 1014.3
20260506164749 55 203 0.0 0.0 0.00 0.00 0.00 90 1014.0
20260506164246 56 199 0.0 0.0 0.00 0.00 0.00 90 1014.6
20260506163743 56 103 0.0 0.0 0.00 0.00 0.00 90 1014.5
20260506163238 56 192 0.0 0.0 0.00 0.00 0.00 90 1014.4
20260506162734 57 194 0.0 0.0 0.00 0.00 0.00 90 1014.6
20260506162232 56 184 0.0 0.0 0.00 0.00 0.00 90 1014.9
20260506161729 56 169 0.0 0.0 0.00 0.00 0.00 91 1014.8
20260506161226 55 181 0.0 0.0 0.00 0.00 0.00 92 1015.0
20260506160724 55 14 0.0 0.0 0.00 0.00 0.00 92 1015.1
20260506160220 55 138 0.0 0.0 0.00 0.00 0.00 92 1015.1
20260506155719 55 168 0.0 0.0 0.00 0.00 0.00 92 1015.2
20260506155216 54 183 0.0 0.0 0.00 0.00 0.00 93 1015.1
20260506153324 55 181 0.0 0.0 0.00 0.00 0.00 91 1014.8
20260506152821 55 98 1.0 1.0 0.00 0.00 0.00 89 1014.8
20260506152318 55 206 0.0 0.0 0.00 0.00 0.00 85 1015.9
20260506151817 55 189 0.0 0.0 0.00 0.00 0.00 85 1016.4
20260506151313 56 176 1.0 1.0 0.00 0.00 0.00 85 1016.4
20260506150810 56 188 0.0 0.0 0.00 0.00 0.00 85 1015.9
20260506150307 56 188 0.0 0.0 0.00 0.00 0.00 85 1015.6
20260506145804 56 189 0.0 0.0 0.00 0.00 0.00 85 1015.2
20260506145300 55 192 0.0 0.0 0.00 0.00 0.00 86 1015.0
20260506144758 55 192 0.0 0.0 0.00 0.00 0.00 85 1015.1
20260506144254 55 177 1.0 1.0 0.00 0.00 0.00 84 1014.3
20260506143752 55 186 0.0 0.0 0.00 0.00 0.00 85 1014.7
20260506143249 55 179 0.0 0.0 0.00 0.00 0.00 84 1014.6
20260506142748 55 181 0.0 0.0 0.00 0.00 0.00 84 1014.9
20260506142245 55 175 0.0 0.0 0.00 0.00 0.00 84 1014.4
20260506141743 55 176 0.0 0.0 0.00 0.00 0.00 84 1014.6
20260506141241 55 193 0.0 0.0 0.00 0.00 0.00 84 1014.5
20260506140738 55 140 0.0 1.0 0.00 0.00 0.00 84 1014.5
20260506140235 55 191 0.0 0.0 0.00 0.00 0.00 84 1014.6
20260506135732 55 200 0.0 0.0 0.00 0.00 0.00 84 1014.2
20260506135228 55 189 0.0 0.0 0.00 0.00 0.00 84 1014.1
20260506134725 55 188 0.0 0.0 0.00 0.00 0.00 84 1013.9
20260506134222 55 174 2.0 2.0 0.00 0.00 0.00 83 1014.2
20260506133719 56 189 0.0 0.0 0.00 0.00 0.00 83 1014.1
20260506133215 56 188 0.0 0.0 0.00 0.00 0.00 83 1014.1
20260506132713 55 192 0.0 0.0 0.00 0.00 0.00 83 1014.0
20260506132209 56 198 0.0 0.0 0.00 0.00 0.00 83 1013.9
20260506131708 56 195 0.0 0.0 0.00 0.00 0.00 82 1013.4
20260506131203 56 187 0.0 0.0 0.00 0.00 0.00 83 1013.4
20260506130700 56 176 0.0 0.0 0.00 0.00 0.00 82 1013.4
20260506130157 56 176 0.0 1.0 0.00 0.00 0.00 82 1013.7
20260506125655 56 187 0.0 0.0 0.00 0.00 0.00 81 1013.6
20260506125153 56 190 0.0 0.0 0.00 0.00 0.00 82 1013.6
20260506124650 56 192 0.0 0.0 0.00 0.00 0.00 81 1013.4
20260506124149 57 194 0.0 0.0 0.00 0.00 0.00 81 1013.2
20260506123646 57 187 0.0 0.0 0.00 0.00 0.00 81 1013.0
20260506123144 57 186 0.0 0.0 0.00 0.00 0.00 80 1013.2
20260506122641 57 187 0.0 0.0 0.00 0.00 0.00 81 1013.0
20260506122138 57 206 0.0 0.0 0.00 0.00 0.00 80 1012.9
20260506121636 57 183 0.0 0.0 0.00 0.00 0.00 80 1012.8
20260506121132 57 196 0.0 0.0 0.00 0.00 0.00 80 1012.7
20260506120630 57 173 0.0 0.0 0.00 0.00 0.00 79 1013.1
20260506120127 57 189 1.0 1.0 0.00 0.00 0.00 80 1013.0
20260506115626 57 164 0.0 0.0 0.00 0.00 0.00 79 1012.9
20260506115123 57 197 0.0 0.0 0.00 0.00 0.00 79 1012.7
20260506114620 57 201 0.0 0.0 0.00 0.00 0.00 79 1012.7
20260506114118 57 185 0.0 0.0 0.00 0.00 0.00 80 1012.4
20260506113616 57 189 0.0 0.0 0.00 0.00 0.00 79 1012.3
20260506113113 57 197 0.0 0.0 0.00 0.00 0.00 79 1012.0
20260506112610 58 193 0.0 0.0 0.00 0.00 0.00 78 1012.2
20260506112107 58 192 0.0 0.0 0.00 0.00 0.00 79 1012.1
20260506111605 58 200 0.0 0.0 0.00 0.00 0.00 78 1012.1
20260506111102 58 188 0.0 0.0 0.00 0.00 0.00 78 1012.0
20260506110600 58 189 0.0 0.0 0.00 0.00 0.00 79 1011.8
20260506110057 58 189 0.0 0.0 0.00 0.00 0.00 81 1011.7
20260506105553 58 189 0.0 0.0 0.00 0.00 0.00 78 1011.7
20260506105050 58 188 0.0 0.0 0.00 0.00 0.00 80 1011.7
20260506104548 59 190 0.0 0.0 0.00 0.00 0.00 80 1011.4
20260506104046 59 177 0.0 0.0 0.00 0.00 0.00 79 1011.3
20260506103543 59 189 0.0 1.0 0.00 0.00 0.00 79 1011.2
20260506103039 59 184 0.0 0.0 0.00 0.00 0.00 81 1011.3
20260506102538 59 184 0.0 1.0 0.00 0.00 0.00 79 1011.1
20260506102035 59 172 0.0 0.0 0.00 0.00 0.00 78 1010.9
20260506101531 59 179 0.0 0.0 0.00 0.00 0.00 80 1010.9
20260506101028 59 177 0.0 0.0 0.00 0.00 0.00 79 1010.9
20260506100527 59 193 0.0 0.0 0.00 0.00 0.00 78 1010.5
20260506100025 59 173 0.0 0.0 0.00 0.00 0.00 79 1010.7
20260506095523 60 182 0.0 0.0 0.00 0.00 0.00 80 1010.8
20260506095019 60 183 0.0 0.0 0.00 0.00 0.00 81 1010.7
20260506094517 60 185 0.0 0.0 0.00 0.00 0.00 77 1010.4
20260506094015 60 185 0.0 0.0 0.00 0.00 0.00 76 1010.7